DW5010 Weather Reports


Display with metric or nautical units.
time (UTC)temp
F
wind
direction
speed
MPH
gust
MPH
rain 1hr
in
rain 24hr
in
rain mn
in
humidity
%
barometer
mb
20260507115516 36 252 3.0 6.0 0.00 0.00 0.00 68 1013.9
20260507115016 35 246 2.0 4.0 0.00 0.00 0.00 70 1014.0
20260507114531 35 246 2.0 6.0 0.00 0.00 0.00 70 1013.9
20260507114015 35 242 2.0 6.0 0.00 0.00 0.00 70 1013.9
20260507113518 34 254 1.0 5.0 0.00 0.00 0.00 71 1013.8
20260507113029 34 270 2.0 5.0 0.00 0.00 0.00 72 1013.8
20260507112514 33 246 2.0 4.0 0.00 0.00 0.00 72 1013.8
20260507112013 33 0 2.0 4.0 0.00 0.00 0.00 73 1013.8
20260507111530 33 268 2.0 4.0 0.00 0.00 0.00 74 1013.6
20260507111015 32 260 1.0 4.0 0.00 0.00 0.00 74 1013.5
20260507110515 32 252 1.0 3.0 0.00 0.00 0.00 74 1013.6
20260507110030 32 0 0.0 3.0 0.00 0.00 0.00 74 1013.6
20260507105514 32 0 0.0 3.0 0.00 0.00 0.00 74 1013.5
20260507105014 32 245 0.0 3.0 0.00 0.00 0.00 74 1013.5
20260507104530 32 244 0.0 3.0 0.00 0.00 0.00 74 1013.6
20260507104016 32 229 1.0 3.0 0.00 0.00 0.00 74 1013.6
20260507103516 33 251 0.0 3.0 0.00 0.00 0.00 73 1013.7
20260507103029 33 231 0.0 3.0 0.00 0.00 0.00 73 1013.6
20260507102515 33 232 1.0 3.0 0.00 0.00 0.00 73 1013.7
20260507102016 33 230 1.0 3.0 0.00 0.00 0.00 73 1013.7
20260507101530 33 230 1.0 5.0 0.00 0.00 0.00 73 1013.8
20260507101015 33 0 1.0 5.0 0.00 0.00 0.00 73 1013.8
20260507100515 33 249 2.0 5.0 0.00 0.00 0.00 73 1013.7
20260507100040 33 241 2.0 5.0 0.00 0.00 0.00 73 1013.7
20260507095601 33 252 2.0 3.0 0.00 0.00 0.00 73 1013.6
20260507095015 33 246 1.0 3.0 0.00 0.00 0.00 73 1013.5
20260507094531 33 224 1.0 4.0 0.00 0.00 0.00 73 1013.5
20260507094018 33 221 1.0 4.0 0.00 0.00 0.00 73 1013.4
20260507093515 33 230 1.0 4.0 0.00 0.00 0.00 73 1013.4
20260507093032 33 238 1.0 4.0 0.00 0.00 0.00 73 1013.4
20260507092512 33 236 0.0 3.0 0.00 0.00 0.00 72 1013.4
20260507092016 33 252 1.0 3.0 0.00 0.00 0.00 72 1013.5
20260507091537 34 245 1.0 4.0 0.00 0.00 0.00 72 1013.5
20260507091015 34 0 1.0 4.0 0.00 0.00 0.00 72 1013.4
20260507090515 33 263 2.0 4.0 0.00 0.00 0.00 72 1013.6
20260507090031 33 253 1.0 3.0 0.00 0.00 0.00 73 1013.5
20260507085515 34 244 0.0 3.0 0.00 0.00 0.00 72 1013.5
20260507085017 34 251 1.0 3.0 0.00 0.00 0.00 72 1013.6
20260507084531 34 0 0.0 3.0 0.00 0.00 0.00 72 1013.5
20260507084015 34 243 1.0 4.0 0.00 0.00 0.00 72 1013.5
20260507083515 34 264 1.0 4.0 0.00 0.00 0.00 73 1013.7
20260507083030 34 248 0.0 3.0 0.00 0.00 0.00 73 1013.6
20260507082515 34 261 1.0 3.0 0.00 0.00 0.00 73 1013.4
20260507082012 34 256 1.0 3.0 0.00 0.00 0.00 72 1013.5
20260507081529 34 0 1.0 2.0 0.00 0.00 0.00 72 1013.3
20260507081015 34 0 1.0 3.0 0.00 0.00 0.00 72 1013.3
20260507080516 34 254 0.0 3.0 0.00 0.00 0.00 72 1013.4
20260507080035 34 0 1.0 3.0 0.00 0.00 0.00 72 1013.4
20260507075515 34 236 0.0 2.0 0.00 0.00 0.00 71 1013.3
20260507075015 34 236 1.0 2.0 0.00 0.00 0.00 71 1013.4
20260507074530 34 236 0.0 2.0 0.00 0.00 0.00 71 1013.5
20260507074018 35 0 0.0 2.0 0.00 0.00 0.00 71 1013.5
20260507073515 35 0 0.0 2.0 0.00 0.00 0.00 70 1013.5
20260507073032 35 228 1.0 3.0 0.00 0.00 0.00 70 1013.6
20260507072515 35 241 0.0 3.0 0.00 0.00 0.00 70 1013.6
20260507072014 35 0 1.0 3.0 0.00 0.00 0.00 69 1013.7
20260507071533 35 0 0.0 0.0 0.00 0.00 0.00 69 1013.7
20260507071018 36 0 0.0 2.0 0.00 0.00 0.00 68 1013.8
20260507070515 36 0 0.0 2.0 0.00 0.00 0.00 68 1013.9
20260507070034 36 0 0.0 2.0 0.00 0.00 0.00 67 1013.9
20260507065514 36 0 0.0 3.0 0.00 0.00 0.00 67 1014.0
20260507065014 36 0 0.0 3.0 0.00 0.00 0.00 67 1014.0
20260507064557 37 0 0.0 3.0 0.00 0.00 0.00 67 1014.1
20260507064015 37 0 0.0 4.0 0.00 0.00 0.00 66 1014.2
20260507063516 37 251 1.0 4.0 0.00 0.00 0.00 66 1014.2
20260507063034 37 0 0.0 4.0 0.00 0.00 0.00 66 1014.1
20260507062521 37 0 0.0 4.0 0.00 0.00 0.00 65 1014.2
20260507062015 37 266 1.0 4.0 0.00 0.00 0.00 65 1014.2
20260507061531 38 252 0.0 5.0 0.00 0.00 0.00 64 1014.1
20260507061016 38 0 1.0 5.0 0.00 0.00 0.00 64 1014.2
20260507060515 38 0 0.0 4.0 0.00 0.00 0.00 64 1014.1
20260507060028 38 0 1.0 4.0 0.00 0.00 0.00 64 1014.1
20260507055515 38 271 1.0 3.0 0.00 0.00 0.00 64 1014.2
20260507055016 37 0 1.0 3.0 0.00 0.00 0.00 65 1014.1
20260507054530 37 284 1.0 3.0 0.00 0.00 0.00 65 1014.2
20260507054015 37 0 0.0 4.0 0.00 0.00 0.00 65 1014.2
20260507053515 37 0 0.0 4.0 0.00 0.00 0.00 65 1014.3
20260507053034 37 262 1.0 3.0 0.00 0.00 0.00 66 1014.3
20260507052512 37 0 1.0 3.0 0.00 0.00 0.00 66 1014.4
20260507052015 37 259 0.0 2.0 0.00 0.00 0.00 66 1014.4
20260507051532 37 259 0.0 3.0 0.00 0.00 0.00 66 1014.2
20260507051014 37 0 0.0 3.0 0.00 0.00 0.00 65 1014.3
20260507050514 37 0 0.0 2.0 0.00 0.00 0.00 64 1014.2
20260507050040 38 287 0.0 2.0 0.00 0.00 0.00 63 1014.3
20260507045516 38 0 0.0 2.0 0.00 0.00 0.00 62 1014.3
20260507045019 39 0 0.0 2.0 0.00 0.00 0.00 62 1014.4
20260507044532 39 0 0.0 2.0 0.00 0.00 0.00 61 1014.4
20260507044016 39 0 0.0 3.0 0.00 0.00 0.00 60 1014.4
20260507043515 40 0 0.0 3.0 0.00 0.00 0.00 59 1014.4
20260507043030 40 0 0.0 4.0 0.00 0.00 0.00 58 1014.4
20260507042515 40 0 0.0 6.0 0.00 0.00 0.00 58 1014.4
20260507042015 41 234 1.0 6.0 0.00 0.00 0.00 58 1014.5
20260507041533 41 0 2.0 5.0 0.00 0.00 0.00 57 1014.5
20260507041018 41 0 0.0 4.0 0.00 0.00 0.00 57 1014.5
20260507040513 41 251 1.0 7.0 0.00 0.00 0.00 56 1014.5
20260507040032 42 249 1.0 7.0 0.00 0.00 0.00 55 1014.5
20260507035511 42 259 3.0 8.0 0.00 0.00 0.00 55 1014.5
20260507035015 42 284 2.0 8.0 0.00 0.00 0.00 55 1014.5
20260507034531 42 252 2.0 7.0 0.00 0.00 0.00 54 1014.6
20260507034012 42 258 2.0 9.0 0.00 0.00 0.00 54 1014.6
20260507033517 43 245 3.0 11.0 0.00 0.00 0.00 54 1014.5
20260507033030 43 279 3.0 11.0 0.00 0.00 0.00 54 1014.6
20260507032515 43 249 4.0 11.0 0.00 0.00 0.00 54 1014.6
20260507032014 43 323 3.0 9.0 0.00 0.00 0.00 54 1014.6
20260507031533 43 330 1.0 7.0 0.00 0.00 0.00 54 1014.6
20260507031015 43 287 0.0 8.0 0.00 0.00 0.00 53 1014.5
20260507030518 44 0 2.0 11.0 0.00 0.00 0.00 52 1014.5
20260507030030 44 0 2.0 11.0 0.00 0.00 0.00 51 1014.5
20260507025515 44 276 4.0 12.0 0.00 0.00 0.00 51 1014.5
20260507025015 44 269 3.0 12.0 0.00 0.00 0.00 51 1014.4
20260507024530 45 0 3.0 10.0 0.00 0.00 0.00 50 1014.3
20260507024013 45 255 3.0 13.0 0.00 0.00 0.00 50 1014.2
20260507023515 45 303 3.0 13.0 0.00 0.00 0.00 49 1014.1
20260507023030 45 333 4.0 10.0 0.00 0.00 0.00 49 1014.0
20260507022516 46 222 4.0 12.0 0.00 0.00 0.00 49 1014.0
20260507022016 46 252 2.0 12.0 0.00 0.00 0.00 50 1014.0
20260507021536 46 255 4.0 12.0 0.00 0.00 0.00 49 1013.9
20260507021014 46 262 3.0 10.0 0.00 0.00 0.00 50 1013.8
20260507020516 46 234 3.0 10.0 0.00 0.00 0.00 49 1013.9
20260507020035 46 0 2.0 9.0 0.00 0.00 0.00 49 1013.7
20260507015518 46 286 3.0 9.0 0.00 0.00 0.00 49 1013.7
20260507015015 46 0 2.0 8.0 0.00 0.00 0.00 49 1013.6
20260507014531 46 286 2.0 12.0 0.00 0.00 0.00 48 1013.5
20260507014014 47 321 1.0 16.0 0.00 0.00 0.00 47 1013.4
20260507013516 47 251 6.0 16.0 0.00 0.00 0.00 46 1013.4
20260507013031 47 331 3.0 8.0 0.00 0.00 0.00 47 1013.4
20260507012515 48 340 2.0 13.0 0.00 0.00 0.00 46 1013.2
20260507012015 48 278 4.0 13.0 0.00 0.00 0.00 47 1013.2
20260507011533 48 244 3.0 15.0 0.00 0.00 0.00 46 1013.2
20260507011014 48 261 4.0 15.0 0.00 0.00 0.00 46 1013.1
20260507010515 48 298 5.0 15.0 0.00 0.00 0.00 46 1013.0
20260507010048 48 296 4.0 13.0 0.00 0.00 0.00 45 1013.0
20260507005516 49 329 3.0 9.0 0.00 0.00 0.00 46 1012.9
20260507005014 49 305 3.0 9.0 0.00 0.00 0.00 46 1012.9
20260507004535 49 317 1.0 9.0 0.00 0.00 0.00 45 1012.7
20260507004016 49 266 3.0 12.0 0.00 0.00 0.00 45 1012.8
20260507003512 49 280 2.0 12.0 0.00 0.00 0.00 45 1012.7
20260507003032 49 262 4.0 11.0 0.00 0.00 0.00 44 1012.7
20260507002514 49 298 3.0 12.0 0.00 0.00 0.00 44 1012.6
20260507002021 50 246 3.0 12.0 0.00 0.00 0.00 44 1012.6
20260507001531 50 275 4.0 12.0 0.00 0.00 0.00 44 1012.6
20260507001014 50 252 2.0 11.0 0.00 0.00 0.00 44 1012.5
20260507000518 50 300 2.0 14.0 0.00 0.00 0.00 45 1012.5
20260507000032 50 287 5.0 14.0 0.00 0.00 0.00 44 1012.5
20260506235514 50 214 3.0 10.0 0.00 0.00 0.00 44 1012.5
20260506235014 50 273 4.0 10.0 0.00 0.00 0.00 43 1012.5
20260506234532 50 296 2.0 12.0 0.00 0.00 0.00 44 1012.4
20260506234012 51 291 5.0 16.0 0.00 0.00 0.00 43 1012.4
20260506233514 51 266 4.0 16.0 0.00 0.00 0.00 43 1012.4
20260506233033 51 301 3.0 12.0 0.00 0.00 0.00 44 1012.3
20260506232515 51 305 3.0 10.0 0.00 0.00 0.00 43 1012.3
20260506232011 51 273 4.0 10.0 0.00 0.00 0.00 42 1012.3
20260506231529 51 240 3.0 16.0 0.00 0.00 0.00 44 1012.2
20260506231015 51 268 5.0 16.0 0.00 0.00 0.00 42 1012.3
20260506230514 51 229 4.0 10.0 0.00 0.00 0.00 43 1012.3
20260506230030 51 331 4.0 10.0 0.00 0.00 0.00 41 1012.3
20260506225515 51 242 2.0 12.0 0.00 0.00 0.00 42 1012.3
20260506225014 51 261 4.0 12.0 0.00 0.00 0.00 42 1012.3
20260506224532 51 282 3.0 13.0 0.00 0.00 0.00 43 1012.3
20260506224013 51 343 3.0 13.0 0.00 0.00 0.00 45 1012.2
20260506223513 52 255 4.0 11.0 0.00 0.00 0.00 44 1012.2
20260506223030 52 294 3.0 9.0 0.00 0.00 0.00 43 1012.1
20260506222515 52 246 4.0 11.0 0.00 0.00 0.00 43 1012.1
20260506222018 52 246 2.0 11.0 0.00 0.00 0.00 43 1012.1
20260506221530 52 338 3.0 9.0 0.00 0.00 0.00 41 1012.0
20260506221014 52 300 4.0 11.0 0.00 0.00 0.00 41 1012.0
20260506220512 52 269 3.0 12.0 0.00 0.00 0.00 42 1011.9
20260506220035 52 236 4.0 12.0 0.00 0.00 0.00 42 1012.0
20260506215517 52 250 4.0 12.0 0.00 0.00 0.00 40 1011.9
20260506215012 52 248 3.0 11.0 0.00 0.00 0.00 42 1011.9
20260506214536 53 247 3.0 10.0 0.00 0.00 0.00 43 1011.9
20260506214013 53 272 2.0 10.0 0.00 0.00 0.00 40 1011.9
20260506213514 53 301 3.0 15.0 0.00 0.00 0.00 42 1011.9
20260506213028 53 311 6.0 15.0 0.00 0.00 0.00 40 1011.9
20260506212514 53 243 5.0 15.0 0.00 0.00 0.00 39 1011.8
20260506212016 53 298 3.0 14.0 0.00 0.00 0.00 40 1011.9
20260506211535 53 249 2.0 14.0 0.00 0.00 0.00 43 1011.8
20260506211014 53 252 6.0 13.0 0.00 0.00 0.00 40 1011.9
20260506210514 53 230 5.0 12.0 0.00 0.00 0.00 39 1011.9
20260506210033 53 313 5.0 13.0 0.00 0.00 0.00 40 1011.8
20260506205514 53 251 6.0 13.0 0.00 0.00 0.00 40 1011.9
20260506205014 53 311 2.0 12.0 0.00 0.00 0.00 43 1011.9
20260506204535 53 263 6.0 12.0 0.00 0.00 0.00 40 1011.9
20260506204013 53 211 6.0 13.0 0.00 0.00 0.00 40 1011.9
20260506203515 53 234 5.0 13.0 0.00 0.00 0.00 42 1011.9
20260506203031 53 229 6.0 13.0 0.00 0.00 0.00 40 1012.0
20260506202514 54 247 3.0 13.0 0.00 0.00 0.00 40 1012.1
20260506202012 54 55 6.0 13.0 0.00 0.00 0.00 40 1012.1
20260506201537 54 233 4.0 13.0 0.00 0.00 0.00 40 1012.0
20260506201014 54 261 5.0 13.0 0.00 0.00 0.00 42 1012.2
20260506200513 54 292 4.0 11.0 0.00 0.00 0.00 41 1012.2
20260506200030 54 248 4.0 11.0 0.00 0.00 0.00 42 1012.1
20260506195514 53 229 3.0 11.0 0.00 0.00 0.00 42 1012.2
20260506195014 53 264 4.0 9.0 0.00 0.00 0.00 41 1012.1
20260506194531 54 277 3.0 12.0 0.00 0.00 0.00 43 1012.2
20260506194017 54 273 5.0 12.0 0.00 0.00 0.00 40 1012.1
20260506193515 54 211 5.0 13.0 0.00 0.00 0.00 39 1012.0
20260506193031 54 264 5.0 13.0 0.00 0.00 0.00 41 1012.0
20260506192515 54 338 4.0 13.0 0.00 0.00 0.00 41 1012.1
20260506192017 54 248 4.0 13.0 0.00 0.00 0.00 43 1012.0
20260506191533 54 271 3.0 12.0 0.00 0.00 0.00 44 1012.1
20260506191014 54 233 3.0 12.0 0.00 0.00 0.00 42 1012.2
20260506190514 54 279 4.0 14.0 0.00 0.00 0.00 42 1012.2
20260506190031 53 313 3.0 14.0 0.00 0.00 0.00 43 1012.2
20260506185515 53 252 3.0 12.0 0.00 0.00 0.00 42 1012.3
20260506185014 53 246 5.0 12.0 0.00 0.00 0.00 41 1012.3
20260506184531 53 269 6.0 12.0 0.00 0.00 0.00 39 1012.2
20260506184014 53 275 3.0 9.0 0.00 0.00 0.00 44 1012.2
20260506183511 53 309 4.0 9.0 0.00 0.00 0.00 41 1012.2
20260506183027 53 257 4.0 11.0 0.00 0.00 0.00 42 1012.1
20260506182513 53 288 3.0 11.0 0.00 0.00 0.00 43 1012.2
20260506182012 54 283 5.0 11.0 0.00 0.00 0.00 41 1012.1
20260506181530 54 283 6.0 11.0 0.00 0.00 0.00 42 1012.0
20260506181014 53 248 6.0 13.0 0.00 0.00 0.00 42 1012.0
20260506180514 53 238 5.0 13.0 0.00 0.00 0.00 41 1012.1
20260506180036 53 241 5.0 12.0 0.00 0.00 0.00 41 1012.1
20260506175514 53 271 7.0 12.0 0.00 0.00 0.00 40 1012.2
20260506175014 53 275 3.0 11.0 0.00 0.00 0.00 45 1012.1
20260506174534 53 175 3.0 11.0 0.00 0.00 0.00 44 1012.3
20260506174011 53 259 4.0 9.0 0.00 0.00 0.00 43 1012.3
20260506173515 52 310 3.0 11.0 0.00 0.00 0.00 41 1012.4
20260506173030 52 231 3.0 15.0 0.00 0.00 0.00 44 1012.4
20260506172515 52 307 6.0 15.0 0.00 0.00 0.00 40 1012.5
20260506172014 53 251 6.0 14.0 0.00 0.00 0.00 40 1012.5
20260506171539 53 233 5.0 13.0 0.00 0.00 0.00 42 1012.4
20260506171015 52 250 4.0 11.0 0.00 0.00 0.00 43 1012.5
20260506170514 52 311 4.0 13.0 0.00 0.00 0.00 43 1012.6
20260506170027 52 289 4.0 13.0 0.00 0.00 0.00 43 1012.6
20260506165513 52 263 6.0 13.0 0.00 0.00 0.00 42 1012.7
20260506165015 52 235 3.0 9.0 0.00 0.00 0.00 43 1012.6
20260506164532 52 240 2.0 12.0 0.00 0.00 0.00 47 1012.7
20260506164011 51 194 6.0 12.0 0.00 0.00 0.00 41 1012.8
20260506163511 51 296 4.0 14.0 0.00 0.00 0.00 45 1012.7
20260506163034 51 288 6.0 14.0 0.00 0.00 0.00 44 1012.6
20260506162512 51 259 2.0 12.0 0.00 0.00 0.00 44 1012.6
20260506162015 51 246 5.0 12.0 0.00 0.00 0.00 43 1012.5
20260506161532 52 285 5.0 12.0 0.00 0.00 0.00 43 1012.5
20260506161012 53 319 4.0 12.0 0.00 0.00 0.00 42 1012.6
20260506160514 54 251 2.0 13.0 0.00 0.00 0.00 41 1012.5
20260506160031 53 188 3.0 13.0 0.00 0.00 0.00 40 1012.5
20260506155514 53 200 4.0 12.0 0.00 0.00 0.00 44 1012.4
20260506155014 51 250 6.0 16.0 0.00 0.00 0.00 46 1012.5
20260506154533 52 261 6.0 16.0 0.00 0.00 0.00 39 1012.6
20260506154012 52 236 4.0 10.0 0.00 0.00 0.00 43 1012.5
20260506153513 51 242 2.0 12.0 0.00 0.00 0.00 45 1012.5
20260506153027 51 292 4.0 12.0 0.00 0.00 0.00 41 1012.4
20260506152517 52 244 6.0 11.0 0.00 0.00 0.00 40 1012.4
20260506152015 52 298 5.0 10.0 0.00 0.00 0.00 45 1012.4
20260506151538 51 272 3.0 9.0 0.00 0.00 0.00 42 1012.4
20260506151014 51 0 2.0 9.0 0.00 0.00 0.00 45 1012.4
20260506150514 51 217 3.0 10.0 0.00 0.00 0.00 43 1012.5
20260506150032 52 244 4.0 10.0 0.00 0.00 0.00 42 1012.4
20260506145515 52 285 6.0 10.0 0.00 0.00 0.00 40 1012.5
20260506145014 53 305 3.0 9.0 0.00 0.00 0.00 47 1012.4
20260506144534 52 257 3.0 9.0 0.00 0.00 0.00 45 1012.5
20260506144013 52 247 2.0 11.0 0.00 0.00 0.00 44 1012.5
20260506143514 52 224 4.0 11.0 0.00 0.00 0.00 46 1012.5
20260506143028 52 246 3.0 9.0 0.00 0.00 0.00 45 1012.5
20260506142513 52 265 5.0 9.0 0.00 0.00 0.00 46 1012.5
20260506142015 52 257 3.0 10.0 0.00 0.00 0.00 44 1012.5
20260506141528 51 0 4.0 10.0 0.00 0.00 0.00 45 1012.5
20260506141014 51 211 2.0 12.0 0.00 0.00 0.00 46 1012.5
20260506140514 51 236 6.0 12.0 0.00 0.00 0.00 43 1012.5
20260506140034 51 223 4.0 12.0 0.00 0.00 0.00 45 1012.4
20260506135514 51 249 3.0 12.0 0.00 0.00 0.00 45 1012.4
20260506135013 51 303 5.0 12.0 0.00 0.00 0.00 44 1012.4
20260506134529 50 187 7.0 12.0 0.00 0.00 0.00 45 1012.4
20260506134014 50 244 2.0 10.0 0.00 0.00 0.00 45 1012.4
20260506133513 50 195 5.0 10.0 0.00 0.00 0.00 47 1012.4
20260506133031 49 198 5.0 9.0 0.00 0.00 0.00 47 1012.4
20260506132515 49 0 2.0 8.0 0.00 0.00 0.00 51 1012.3
20260506132011 48 220 4.0 8.0 0.00 0.00 0.00 53 1012.3
20260506131530 47 259 3.0 8.0 0.00 0.00 0.00 52 1012.2
20260506131016 47 266 4.0 8.0 0.00 0.00 0.00 54 1012.3
20260506130517 46 221 4.0 8.0 0.00 0.00 0.00 54 1012.2
20260506130030 45 167 2.0 7.0 0.00 0.00 0.00 61 1012.2
20260506125510 45 254 2.0 6.0 0.00 0.00 0.00 61 1012.2
20260506125016 44 262 1.0 4.0 0.00 0.00 0.00 63 1012.1
20260506124532 43 238 0.0 5.0 0.00 0.00 0.00 63 1012.1
20260506124012 43 268 1.0 7.0 0.00 0.00 0.00 61 1012.0
20260506123511 42 237 3.0 7.0 0.00 0.00 0.00 62 1012.0
20260506123030 41 248 3.0 7.0 0.00 0.00 0.00 63 1011.9
20260506122514 41 258 3.0 7.0 0.00 0.00 0.00 64 1011.9
20260506122014 40 261 2.0 7.0 0.00 0.00 0.00 65 1011.9
20260506121529 40 241 3.0 6.0 0.00 0.00 0.00 66 1011.8
20260506121016 39 254 2.0 6.0 0.00 0.00 0.00 67 1011.7
20260506120517 38 257 1.0 6.0 0.00 0.00 0.00 68 1011.7
20260506120032 38 252 1.0 4.0 0.00 0.00 0.00 69 1011.7